• In Austria
  • List of Countries
  • For 7 days
  • Water Temperature
  • Satellite Maps
  • Weather Map
  • News
  • Weather Widgets
  • user-avatar
    Login

    Hourly Weather Kozak

    Today, 24 September, Monday

    Time Temperature Precipitation Wind Pressure Humidity
    00:00 +12°C° 0 mm 5 mps 742 mmHg 64%
    01:00 +11°C° 0 mm 6 mps 741 mmHg 60%
    02:00 +12°C° 0 mm 4 mps 739 mmHg 59%
    03:00 +13°C° 0 mm 6 mps 738 mmHg 60%
    04:00 +12°C° 0 mm 8 mps 737 mmHg 61%
    05:00 +12°C° 0 mm 9 mps 736 mmHg 61%
    06:00 +12°C° 0.7 mm 9 mps 736 mmHg 67%
    07:00 +12°C° 0.7 mm 8 mps 735 mmHg 72%
    08:00 +13°C° 0 mm 8 mps 734 mmHg 78%
    09:00 +13°C° 1 mm 8 mps 735 mmHg 80%
    10:00 +13°C° 1 mm 9 mps 735 mmHg 82%
    11:00 +13°C° 1 mm 9 mps 735 mmHg 84%
    12:00 +12°C° 0.1 mm 9 mps 736 mmHg 80%
    13:00 +11°C° 0.1 mm 10 mps 737 mmHg 77%
    14:00 +11°C° 0.1 mm 10 mps 738 mmHg 73%
    15:00 +10°C° 0 mm 9 mps 738 mmHg 73%
    16:00 +10°C° 0 mm 8 mps 739 mmHg 72%
    17:00 +9°C° 0 mm 7 mps 739 mmHg 72%
    18:00 +9°C° 0 mm 7 mps 740 mmHg 72%
    19:00 +9°C° 0 mm 7 mps 740 mmHg 73%
    20:00 +8°C° 0 mm 7 mps 740 mmHg 74%
    21:00 +8°C° 0 mm 7 mps 740 mmHg 74%
    22:00 +7°C° 0 mm 6 mps 741 mmHg 75%
    23:00 +7°C° 0 mm 6 mps 741 mmHg 76%

    Tomorrow, 25 September, Tuesday

    Time Temperature Precipitation Wind Pressure Humidity
    00:00 +7°C° 0 mm 6 mps 741 mmHg 78%
    01:00 +5°C° 0 mm 6 mps 742 mmHg 79%
    02:00 +5°C° 0 mm 6 mps 742 mmHg 81%
    03:00 +5°C° 0.1 mm 6 mps 742 mmHg 81%
    04:00 +5°C° 0.1 mm 6 mps 742 mmHg 81%
    05:00 +5°C° 0.1 mm 7 mps 743 mmHg 81%
    06:00 +5°C° 1 mm 7 mps 743 mmHg 83%
    07:00 +5°C° 1 mm 7 mps 744 mmHg 86%
    08:00 +5°C° 1 mm 7 mps 744 mmHg 88%
    09:00 +5°C° 0.4 mm 7 mps 745 mmHg 85%
    10:00 +5°C° 0.4 mm 7 mps 746 mmHg 82%
    11:00 +6°C° 0.4 mm 7 mps 746 mmHg 80%
    12:00 +6°C° 0 mm 7 mps 747 mmHg 76%
    13:00 +6°C° 0 mm 7 mps 747 mmHg 73%
    14:00 +8°C° 0 mm 7 mps 747 mmHg 70%
    15:00 +8°C° 0.1 mm 6 mps 748 mmHg 69%
    16:00 +8°C° 0.1 mm 6 mps 748 mmHg 68%
    17:00 +8°C° 0.1 mm 5 mps 749 mmHg 66%
    18:00 +7°C° 0 mm 5 mps 749 mmHg 69%
    19:00 +6°C° 0 mm 5 mps 750 mmHg 72%
    20:00 +5°C° 0 mm 5 mps 751 mmHg 75%
    21:00 +5°C° 0 mm 5 mps 751 mmHg 76%
    22:00 +5°C° 0 mm 5 mps 752 mmHg 76%
    23:00 +5°C° 0 mm 5 mps 752 mmHg 77%

    Day after tomorrow, 26 September, Wednesday

    Time Temperature Precipitation Wind Pressure Humidity
    00:00 +3°C° 0 mm 5 mps 752 mmHg 78%
    01:00 +3°C° 0 mm 5 mps 753 mmHg 78%
    02:00 +2°C° 0 mm 5 mps 753 mmHg 78%
    03:00 +2°C° 0 mm 5 mps 754 mmHg 79%
    04:00 +3°C° 0 mm 4 mps 754 mmHg 79%
    05:00 +1°C° 0 mm 4 mps 755 mmHg 80%
    06:00 +2°C° 0 mm 5 mps 755 mmHg 78%
    07:00 +2°C° 0 mm 5 mps 756 mmHg 76%
    08:00 +3°C° 0 mm 5 mps 756 mmHg 73%
    09:00 +6°C° 0 mm 5 mps 756 mmHg 66%
    10:00 +7°C° 0 mm 5 mps 756 mmHg 59%
    11:00 +9°C° 0 mm 5 mps 757 mmHg 52%
    12:00 +9°C° 0 mm 5 mps 756 mmHg 51%
    13:00 +11°C° 0 mm 4 mps 756 mmHg 51%
    14:00 +11°C° 0 mm 4 mps 756 mmHg 51%
    15:00 +11°C° 0 mm 4 mps 756 mmHg 54%
    16:00 +10°C° 0 mm 3 mps 755 mmHg 57%
    17:00 +10°C° 0 mm 3 mps 755 mmHg 60%
    18:00 +9°C° 0 mm 3 mps 755 mmHg 63%
    19:00 +8°C° 0 mm 3 mps 755 mmHg 65%
    20:00 +7°C° 0 mm 3 mps 755 mmHg 68%
    21:00 +7°C° 0 mm 3 mps 755 mmHg 66%
    22:00 +6°C° 0 mm 4 mps 754 mmHg 65%
    23:00 +6°C° 0 mm 4 mps 754 mmHg 63%

    27 September, Thursday

    Time Temperature Precipitation Wind Pressure Humidity
    00:00 +6°C° 0 mm 5 mps 754 mmHg 63%
    01:00 +6°C° 0 mm 5 mps 753 mmHg 63%
    02:00 +7°C° 0 mm 5 mps 753 mmHg 64%
    03:00 +5°C° 0.1 mm 6 mps 752 mmHg 64%
    04:00 +5°C° 0.1 mm 6 mps 752 mmHg 65%
    05:00 +5°C° 0.1 mm 6 mps 751 mmHg 66%
    06:00 +7°C° 0 mm 6 mps 751 mmHg 65%
    07:00 +6°C° 0 mm 7 mps 750 mmHg 64%
    08:00 +8°C° 0 mm 7 mps 750 mmHg 62%
    09:00 +9°C° 0 mm 7 mps 750 mmHg 61%
    10:00 +10°C° 0 mm 7 mps 750 mmHg 59%
    11:00 +11°C° 0 mm 8 mps 749 mmHg 57%
    12:00 +12°C° 0 mm 8 mps 749 mmHg 58%
    13:00 +15°C° 0 mm 8 mps 749 mmHg 58%
    14:00 +16°C° 0 mm 8 mps 748 mmHg 58%
    15:00 +16°C° 0 mm 7 mps 748 mmHg 62%
    16:00 +15°C° 0 mm 6 mps 748 mmHg 66%
    17:00 +15°C° 0 mm 5 mps 748 mmHg 70%
    18:00 +14°C° 0 mm 4 mps 748 mmHg 73%
    19:00 +13°C° 0 mm 4 mps 748 mmHg 77%
    20:00 +13°C° 0 mm 4 mps 748 mmHg 81%
    21:00 +13°C° 0 mm 4 mps 748 mmHg 82%
    22:00 +13°C° 0 mm 4 mps 748 mmHg 83%
    23:00 +13°C° 0 mm 4 mps 748 mmHg 84%

    28 September, Friday

    Time Temperature Precipitation Wind Pressure Humidity
    00:00 +12°C° 0 mm 4 mps 748 mmHg 87%
    01:00 +12°C° 0 mm 4 mps 748 mmHg 89%
    02:00 +11°C° 0 mm 4 mps 748 mmHg 92%
    03:00 +11°C° 0 mm 4 mps 747 mmHg 93%
    04:00 +11°C° 0 mm 4 mps 747 mmHg 94%
    05:00 +10°C° 0 mm 4 mps 747 mmHg 95%
    06:00 +11°C° 0 mm 4 mps 747 mmHg 92%
    07:00 +12°C° 0 mm 5 mps 747 mmHg 89%
    08:00 +13°C° 0 mm 5 mps 747 mmHg 85%
    09:00 +14°C° 0 mm 5 mps 746 mmHg 79%
    10:00 +16°C° 0 mm 5 mps 746 mmHg 72%
    11:00 +19°C° 0 mm 6 mps 746 mmHg 66%
    12:00 +19°C° 0 mm 6 mps 746 mmHg 64%
    13:00 +20°C° 0 mm 6 mps 745 mmHg 62%
    14:00 +21°C° 0 mm 6 mps 745 mmHg 60%
    15:00 +20°C° 0 mm 5 mps 745 mmHg 64%
    16:00 +20°C° 0 mm 4 mps 745 mmHg 68%
    17:00 +19°C° 0 mm 3 mps 744 mmHg 72%
    18:00 +18°C° 0 mm 3 mps 744 mmHg 77%
    19:00 +17°C° 0 mm 3 mps 744 mmHg 82%
    20:00 +16°C° 0 mm 3 mps 745 mmHg 87%
    21:00 +15°C° 0 mm 2 mps 745 mmHg 89%
    22:00 +15°C° 0 mm 2 mps 745 mmHg 90%
    23:00 +15°C° 0 mm 2 mps 745 mmHg 91%

    29 September, Saturday

    Time Temperature Precipitation Wind Pressure Humidity
    00:00 +14°C° 0 mm 2 mps 745 mmHg 92%
    01:00 +14°C° 0 mm 2 mps 745 mmHg 92%
    02:00 +13°C° 0 mm 2 mps 745 mmHg 93%
    03:00 +13°C° 0 mm 2 mps 745 mmHg 92%
    04:00 +12°C° 0 mm 2 mps 745 mmHg 92%
    05:00 +12°C° 0 mm 1 mps 745 mmHg 91%
    06:00 +12°C° 0.1 mm 2 mps 745 mmHg 89%
    07:00 +11°C° 0.1 mm 3 mps 745 mmHg 87%
    08:00 +11°C° 0.1 mm 3 mps 745 mmHg 85%
    09:00 +10°C° 0.2 mm 4 mps 746 mmHg 84%
    10:00 +10°C° 0.2 mm 4 mps 746 mmHg 83%
    11:00 +8°C° 0.2 mm 5 mps 746 mmHg 82%
    12:00 +8°C° 0.3 mm 5 mps 747 mmHg 80%
    13:00 +8°C° 0.3 mm 5 mps 747 mmHg 78%
    14:00 +8°C° 0.3 mm 5 mps 747 mmHg 76%
    15:00 +8°C° 0.1 mm 5 mps 747 mmHg 76%
    16:00 +8°C° 0.1 mm 4 mps 748 mmHg 75%
    17:00 +9°C° 0.1 mm 3 mps 748 mmHg 74%
    18:00 +8°C° 0 mm 3 mps 749 mmHg 76%
    19:00 +7°C° 0 mm 3 mps 749 mmHg 78%
    20:00 +5°C° 0 mm 3 mps 750 mmHg 80%
    21:00 +4°C° 0 mm 3 mps 750 mmHg 81%
    22:00 +4°C° 0 mm 3 mps 750 mmHg 81%
    23:00 +3°C° 0 mm 3 mps 751 mmHg 82%
    Show more